Regional Weather Roundup
Issued by NWS Burlington, VT

Home | Current Version | Previous Version | Text Only | Print | Product List | Glossary On
Versions: 1 2 3 4 5 6 7 8 9 10 11 12 13 14 15 16 17 18 19 20 21 22 23 24 25 26 27 28 29 30 31 32 33 34 35 36 37 38 39 40 41 42 43 44 45 46 47 48 49 50
000
ASUS41 KBTV 282210
RWRBTV
VERMONT REGIONAL WEATHER ROUNDUP
NATIONAL WEATHER SERVICE BURLINGTON VT
600 PM EDT WED SEP 28 2016

NOTE: "FAIR" INDICATES FEW OR NO CLOUDS BELOW 12,000 FEET WITH NO
SIGNIFICANT WEATHER AND/OR OBSTRUCTIONS TO VISIBILITY.

* THESE REPORTS ARE NOT UNDER NWS QUALITY CONTROL AND/OR DO NOT
  REPORT WEATHER SUCH AS PRECIPITATION AND FOG.

VTZ001>019-282300-
_____VERMONT_____


CITY           SKY/WX    TMP DP  RH WIND       PRES   REMARKS
BURLINGTON     PTCLDY    69  48  47 S5        30.24R
MONTPELIER     PTCLDY    62  51  67 S7        30.31R
MORRISVILLE    MOCLDY    65  51  60 NE7       30.28R
ST. JOHNSBURY*   N/A     62  54  74 MISG      30.26R
LYNDONVILLE*   FAIR      61  49  66 N6        30.30R
MIDDLEBURY*    FAIR      63  50  62 S6        30.25S
RUTLAND*       CLOUDY    58  49  72 SE10      30.27R
SPRINGFIELD    CLOUDY    57  47  69 E7        30.30R
HIGHGATE*      FAIR      65  55  71 E5        30.26R
NEWPORT*       MOCLDY    60  54  80 N5        30.29R
BENNINGTON     CLEAR     59  46  62 E12G22    30.23S

_____LAKE CHAMPLAIN_____


CITY           SKY/WX    TMP DP  RH WIND       PRES   REMARKS
BURTON ISLAND*   N/A     70  57  64 E1          N/A
COLCHESTER RF*   N/A     70  57  64 NW1         N/A
DIAMOND ISL*     N/A     68  50  52 S8          N/A

$$

NYZ007-026>031-035-052-083-087-282300-
_____NORTHERN NEW YORK_____


CITY           SKY/WX    TMP DP  RH WIND       PRES   REMARKS
PLATTSBURGH    CLEAR     64  55  72 CALM      30.24R
SARANAC LAKE   CLEAR     62  45  53 E8        30.24R
MASSENA        CLEAR     66  54  65 NE17      30.24R
OGDENSBURG*    PTCLDY    66  57  72 NE9G16    30.20R
POTSDAM*       CLOUDY    64  61  88 NE8       30.22R
WATERTOWN      CLEAR     70  48  45 E6        30.16R
FT DRUM        CLEAR     70  51  50 E7        30.17R
ALBANY         PTCLDY    62  49  62 E6        30.22R
GLENS FALLS    CLEAR     64  48  56 E10       30.23R

$$
NHZ002-005-011-282300-
_____NEW HAMPSHIRE_____


CITY           SKY/WX    TMP DP  RH WIND       PRES   REMARKS
LEBANON        CLEAR     58  49  72 SE7       30.30R
KEENE          CLOUDY    55  48  77 CALM      30.30R
MT WASHINGTON  MOCLDY    39  32  75 E9          N/A
PLYMOUTH       FAIR      57  47  70 SE3       30.32R
WHITEFIELD     CLEAR     58  47  66 E13G21    30.29R

$$

_____REGIONAL QUEBEC LOCATIONS_____


CITY           SKY/WX    TMP DP  RH WIND       PRES   REMARKS
MONTREAL       PTCLDY    63  52  67 NE22      30.27R
QUEBEC CITY    PTCLDY    54  43  66 E12G21    30.43R
SHERBROOKE     PTCLDY    61  52  72 E6        30.31R

_____REGIONAL ONTARIO LOCATIONS_____


CITY           SKY/WX    TMP DP  RH WIND       PRES   REMARKS
OTTAWA         PTCLDY    63  54  72 NE14      30.24R

______KEY______
VSB  - VISIBILITY IN MILES
WCI  - WIND CHILL INDEX
HX   - HEAT INDEX
$$
NNNN




USA.gov is the U.S. government's official web portal to all federal, state and local government web resources and services.